Regional Weather Roundup
Issued by NWS

Home | Current Version | Previous Version | Graphics & Text | Print | Product List | Glossary On
Versions: 1 2 3 4 5 6 7 8 9 10 11 12 13 14 15 16 17 18 19 20 21 22 23 24 25 26 27 28 29 30 31 32 33 34 35 36 37 38 39 40 41 42 43 44 45 46 47 48 49 50
000
ASUS43 KBIS 221610
RWRND

NORTH DAKOTA REGIONAL WEATHER ROUNDUP
NATIONAL WEATHER SERVICE BISMARCK ND
1000 AM CST THU FEB 22 2018

NOTE: "FAIR" INDICATES FEW OR NO CLOUDS BELOW 12,000 FEET WITH NO
SIGNIFICANT WEATHER AND/OR OBSTRUCTIONS TO VISIBILITY.


NDZ001>003-009>011-017-221700-
NORTHWEST NORTH DAKOTA

CITY           SKY/WX    TMP DP  RH WIND       PRES   REMARKS
WILLISTON      SUNNY     -6 -12  75 SW3       30.26R
MINOT          CLOUDY     5  -5  63 S5        30.27R WCI  -4
MINOT AFB      SUNNY      2  -7  66 SW5       30.26S WCI  -7
$$

NDZ018>021-031>035-040>046-221700-
SOUTHWEST NORTH DAKOTA

CITY           SKY/WX    TMP DP  RH WIND       PRES   REMARKS
BISMARCK       SUNNY      1  -6  72 CALM      30.33S
DICKINSON      SUNNY      2  -7  66 SW3       30.18S
GARRISON         N/A     -5 -10  79 CALM      30.28R
HETTINGER ARPT SUNNY    -13 -18  78 NW6       30.18F WCI -27
$$

NDZ004>008-012>016-024-026-027-054-221700-
NORTHEAST NORTH DAKOTA

CITY           SKY/WX    TMP DP  RH WIND       PRES   REMARKS
GRAND FORKS    FAIR       2  -3  80 S16       30.44S WCI -18
GRND FRKS AFB  FAIR       4  -4  69 S10       30.42S WCI -12
DEVILS LAKE    FAIR       1  -3  83 S7        30.34S WCI -12
$$

NDZ022-023-025-028>030-036>039-047>053-221700-
SOUTHEAST NORTH DAKOTA

CITY           SKY/WX    TMP DP  RH WIND       PRES   REMARKS
FARGO          FAIR      11   3  70 S17       30.46S WCI  -6
JAMESTOWN      SUNNY      5   0  79 S6        30.35S WCI  -6
$$





USA.gov is the U.S. government's official web portal to all federal, state and local government web resources and services.